Date String (YYYY-MM-DD hh:mm:ss) UTC,Instrument flags,Ambient pressure (hPa),Sample flow (lpm),Bypass flow (lpm),Sample temperature (°C),Ambient temperature (°C),ASC tube jacket temperature (°C),LED temperature (°C),Box temperature (°C),Sample RH (%),Span deviation,Mass concentration (μg/m³),Mass concentration (μg/m³),Mass concentration (μg/m³)
DateTimeUTC,F1_M11,P_M11,Q1_M11,Q2_M11,T1_M11,T2_M11,T3_M11,T4_M11,T5_M11,U1_M11,ZSPAN_M11,X0_M11,X2_M11,X1_M11
2022-12-20 01:00:00,,0826.4,5.03,0.00,21.9,22.1,00.0,30.6,23.9,03.9,0000.0,0002.72,0001.05,0000.71
2022-12-20 01:01:00,,0826.4,4.97,0.00,21.9,21.5,00.0,30.7,23.7,03.9,0000.0,0003.03,0001.04,0000.71
2022-12-20 01:02:00,,0826.5,5.03,0.00,21.9,21.1,00.0,30.7,23.6,03.9,0000.0,0003.06,0001.03,0000.71
2022-12-20 01:03:00,,0826.4,4.96,0.00,21.8,20.8,00.0,30.7,23.5,03.9,0000.0,0003.03,0001.03,0000.72
2022-12-20 01:04:00,,0826.3,5.04,0.00,21.8,20.5,00.0,30.7,23.3,03.9,0000.0,0003.02,0001.05,0000.72
2022-12-20 01:05:00,,0826.4,4.97,0.00,21.7,20.2,00.0,30.6,23.3,04.0,0000.0,0002.78,0001.07,0000.74
2022-12-20 01:06:00,,0826.3,4.99,0.00,21.7,20.0,00.0,30.6,23.2,03.9,0000.0,0002.65,0001.03,0000.74
2022-12-20 01:07:00,,0826.3,5.02,0.00,21.6,19.9,00.0,30.6,23.1,04.0,0000.0,0003.64,0000.98,0000.74
2022-12-20 01:08:00,,0826.2,5.00,0.00,21.6,19.8,00.0,30.6,23.1,04.0,0000.0,0003.66,0000.99,0000.74
2022-12-20 01:09:00,,0826.3,4.95,0.00,21.6,20.5,00.0,30.5,23.3,04.0,0000.0,0003.64,0001.00,0000.74
2022-12-20 01:10:00,,0826.5,5.03,0.00,21.7,21.6,00.0,30.5,23.6,04.1,0000.0,0003.55,0000.99,0000.74
2022-12-20 01:11:00,,0826.5,4.97,0.00,21.8,21.8,00.0,30.6,23.8,04.1,0000.0,0003.34,0000.98,0000.74
2022-12-20 01:12:00,,0826.5,5.04,0.00,21.8,21.3,00.0,30.6,23.6,04.1,0000.0,0003.35,0000.99,0000.73
2022-12-20 01:13:00,,0826.5,4.95,0.00,21.8,20.9,00.0,30.6,23.5,04.1,0000.0,0003.38,0001.04,0000.73
2022-12-20 01:14:00,,0826.4,5.04,0.00,21.8,20.6,00.0,30.6,23.3,04.1,0000.0,0003.40,0001.05,0000.74
2022-12-20 01:15:00,,0826.6,5.00,0.00,21.7,20.3,00.0,30.6,23.2,04.1,0000.0,0003.37,0001.03,0000.73
2022-12-20 01:16:00,,0826.4,4.96,0.00,21.7,20.0,00.0,30.6,23.1,04.2,0000.0,0003.30,0000.99,0000.73
2022-12-20 01:17:00,,0826.5,5.02,0.00,21.6,19.9,00.0,30.6,23.1,04.2,0000.0,0003.28,0000.98,0000.73
2022-12-20 01:18:00,,0826.5,5.03,0.00,21.6,19.8,00.0,30.6,23.0,04.2,0000.0,0002.20,0000.99,0000.73
2022-12-20 01:19:00,,0826.3,4.95,0.00,21.6,20.4,00.0,30.5,23.2,04.2,0000.0,0001.84,0001.00,0000.73
2022-12-20 01:20:00,,0826.4,5.04,0.00,21.7,21.5,00.0,30.5,23.5,04.2,0000.0,0001.82,0001.01,0000.73
2022-12-20 01:21:00,,0826.4,4.97,0.00,21.8,21.9,00.0,30.5,23.7,04.1,0000.0,0001.76,0000.99,0000.73
2022-12-20 01:22:00,,0826.4,5.03,0.00,21.8,21.5,00.0,30.6,23.7,04.2,0000.0,0001.72,0000.97,0000.73
2022-12-20 01:23:00,,0826.6,4.96,0.00,21.8,21.1,00.0,30.6,23.5,04.2,0000.0,0001.42,0000.98,0000.74
2022-12-20 01:24:00,,0826.5,5.03,0.00,21.8,20.7,00.0,30.6,23.4,04.3,0000.0,0002.10,0000.98,0000.75
2022-12-20 01:25:00,,0826.5,5.03,0.00,21.7,20.3,00.0,30.6,23.3,04.3,0000.0,0003.27,0001.04,0000.75
2022-12-20 01:26:00,,0826.3,4.95,0.00,21.7,20.1,00.0,30.6,23.2,04.3,0000.0,0003.35,0001.04,0000.75
2022-12-20 01:27:00,,0826.5,5.02,0.00,21.6,19.9,00.0,30.6,23.1,04.3,0000.0,0003.42,0001.05,0000.76
2022-12-20 01:28:00,,0826.5,5.02,0.00,21.6,19.9,00.0,30.5,23.1,04.4,0000.0,0003.62,0001.11,0000.77
2022-12-20 01:29:00,,0826.6,4.96,0.00,21.6,20.9,00.0,30.5,23.4,04.4,0000.0,0003.57,0001.09,0000.76
2022-12-20 01:30:00,,0826.6,5.05,0.00,21.8,22.0,00.0,30.5,23.7,04.4,0000.0,0003.48,0001.05,0000.77
2022-12-20 01:31:00,,0826.6,4.98,0.00,21.9,22.4,00.0,30.6,23.9,04.3,0000.0,0003.48,0001.04,0000.78
2022-12-20 01:32:00,,0826.5,4.97,0.00,21.9,21.9,00.0,30.6,23.8,04.4,0000.0,0003.57,0001.07,0000.79
2022-12-20 01:33:00,,0826.7,5.05,0.00,21.9,21.4,00.0,30.7,23.7,04.3,0000.0,0004.22,0001.10,0000.79
2022-12-20 01:34:00,,0826.8,4.98,0.00,21.9,21.0,00.0,30.7,23.5,04.4,0000.0,0004.20,0001.08,0000.78
2022-12-20 01:35:00,,0826.7,5.01,0.00,21.8,20.6,00.0,30.7,23.4,04.3,0000.0,0003.74,0001.07,0000.78
2022-12-20 01:36:00,,0826.4,5.03,0.00,21.8,20.3,00.0,30.6,23.3,04.3,0000.0,0002.38,0001.02,0000.78
2022-12-20 01:37:00,,0826.6,4.99,0.00,21.7,20.1,00.0,30.6,23.2,04.3,0000.0,0002.38,0001.06,0000.78
2022-12-20 01:38:00,,0826.6,4.97,0.00,21.7,19.9,00.0,30.6,23.1,04.4,0000.0,0002.33,0001.06,0000.78
2022-12-20 01:39:00,,0826.6,5.03,0.00,21.6,19.8,00.0,30.6,23.1,04.4,0000.0,0002.13,0001.00,0000.77
2022-12-20 01:40:00,,0826.8,5.02,0.00,21.6,20.6,00.0,30.5,23.3,04.4,0000.0,0002.13,0001.01,0000.77
2022-12-20 01:41:00,,0826.5,4.97,0.00,21.7,21.6,00.0,30.5,23.6,04.4,0000.0,0002.22,0001.04,0000.78
2022-12-20 01:42:00,,0826.5,5.01,0.00,21.9,22.2,00.0,30.6,23.9,04.4,0000.0,0002.51,0001.10,0000.78
2022-12-20 01:43:00,,0826.6,4.99,0.00,21.9,21.9,00.0,30.6,23.9,04.4,0000.0,0002.57,0001.13,0000.78
2022-12-20 01:44:00,,0826.4,4.96,0.00,21.9,21.4,00.0,30.7,23.7,04.4,0000.0,0002.01,0001.12,0000.79
2022-12-20 01:45:00,,0826.4,5.02,0.00,21.9,20.9,00.0,30.7,23.6,04.5,0000.0,0002.32,0001.19,0000.80
2022-12-20 01:46:00,,0826.7,5.04,0.00,21.8,20.5,00.0,30.7,23.4,04.5,0000.0,0003.18,0001.23,0000.81
2022-12-20 01:47:00,,0826.7,4.96,0.00,21.8,20.2,00.0,30.7,23.3,04.6,0000.0,0003.31,0001.23,0000.81
2022-12-20 01:48:00,,0826.5,5.04,0.00,21.7,19.9,00.0,30.7,23.2,04.6,0000.0,0003.64,0001.22,0000.81
2022-12-20 01:49:00,,0826.7,5.01,0.00,21.7,20.0,00.0,30.6,23.2,04.6,0000.0,0003.73,0001.25,0000.82
2022-12-20 01:50:00,,0826.7,4.98,0.00,21.7,21.0,00.0,30.6,23.5,04.6,0000.0,0003.79,0001.27,0000.82
2022-12-20 01:51:00,,0826.8,5.04,0.00,21.9,22.1,00.0,30.6,23.8,04.5,0000.0,0003.90,0001.28,0000.82
2022-12-20 01:52:00,,0826.7,4.98,0.00,22.0,22.2,00.0,30.6,24.0,04.4,0000.0,0003.88,0001.27,0000.81
2022-12-20 01:53:00,,0826.8,4.96,0.00,22.0,21.7,00.0,30.7,23.8,04.4,0000.0,0003.71,0001.23,0000.81
2022-12-20 01:54:00,,0826.8,5.03,0.00,22.0,21.2,00.0,30.7,23.7,04.4,0000.0,0003.67,0001.20,0000.80
2022-12-20 01:55:00,,0826.7,5.02,0.00,21.9,20.8,00.0,30.7,23.6,04.4,0000.0,0004.17,0001.17,0000.79
2022-12-20 01:56:00,,0826.8,4.96,0.00,21.9,20.5,00.0,30.7,23.4,04.4,0000.0,0003.94,0001.11,0000.78
2022-12-20 01:57:00,,0826.8,5.01,0.00,21.8,20.2,00.0,30.7,23.3,04.4,0000.0,0003.15,0001.06,0000.77
2022-12-20 01:58:00,,0827.0,5.01,0.00,21.8,20.0,00.0,30.7,23.2,04.4,0000.0,0002.77,0001.04,0000.76
2022-12-20 01:59:00,,0827.0,4.95,0.00,21.7,20.1,00.0,30.7,23.2,04.5,0000.0,0002.47,0001.02,0000.75
